Data for 02/25/2018

Time Sea-Level Adjusted Pressure Absolute Pressure Temperature Relative Humidity Dew Point   
(mb) (inHg) (mb) (inHg) (C) (F) (%) (C) (F)
00:05 1011 29.85 840 24.81 -5.3 22.5 52 -13.6 7.6
00:10 1011 29.85 840 24.81 -5 22.9 52 -13.6 7.6
00:15 1011 29.85 840 24.81 -5 23 51 -13.7 7.3
00:20 1011 29.85 840 24.81 -4.9 23.2 51 -13.6 7.6
00:25 1011 29.85 840 24.81 -4.9 23.2 51 -13.4 7.8
00:30 1011 29.85 840 24.81 -4.9 23.2 51 -13.5 7.7
00:35 1011 29.85 840 24.81 -4.9 23.2 51 -13.6 7.5
00:40 1011 29.85 840 24.81 -4.9 23.2 50 -13.7 7.3
00:45 1011 29.85 840 24.81 -5 23 51 -13.8 7.2
00:50 1011 29.85 840 24.81 -5.1 22.8 50 -14.1 6.6
00:55 1011 29.85 840 24.81 -5.2 22.7 50 -14 6.9
01:00 1011 29.85 840 24.81 -5.4 22.2 52 -13.9 7.1
01:05 1011 29.85 840 24.81 -5.7 21.8 52 -14 6.9
01:10 1011 29.85 840 24.81 -5.8 21.5 54 -13.8 7.2
01:15 1011 29.85 840 24.81 -5.9 21.3 54 -13.9 7.1
01:20 1011 29.85 840 24.81 -6 21.2 53 -14.1 6.7
01:25 1011 29.85 840 24.81 -5.9 21.5 52 -14.3 6.3
01:30 1010 29.83 840 24.81 -5.7 21.7 50 -14.6 5.8
01:35 1010 29.83 840 24.81 -5.8 21.6 50 -14.6 5.7
01:40 1010 29.83 840 24.81 -5.8 21.6 50 -14.6 5.8
01:45 1010 29.83 840 24.81 -6 21.3 50 -14.8 5.4
01:50 1010 29.83 840 24.81 -6.1 20.9 51 -14.8 5.4
01:55 1010 29.83 840 24.81 -6.3 20.7 50 -15 5
02:00 1010 29.83 840 24.81 -6.4 20.5 50 -15.2 4.7
02:05 1010 29.83 840 24.81 -6.4 20.5 50 -15.2 4.6
02:10 1010 29.83 840 24.81 -6.4 20.5 50 -15.3 4.5
02:15 1010 29.83 840 24.81 -6.2 20.8 48 -15.4 4.2
02:20 1010 29.83 839 24.78 -6 21.3 48 -15.4 4.3
02:25 1010 29.83 839 24.78 -5.8 21.5 48 -15.2 4.6
02:30 1010 29.83 839 24.78 -5.8 21.6 47 -15.4 4.3
02:35 1010 29.83 839 24.78 -5.7 21.7 47 -15.4 4.2
02:40 1010 29.83 839 24.78 -5.7 21.7 46 -15.6 3.9
02:45 1010 29.83 840 24.81 -5.6 21.8 47 -15.3 4.5
02:50 1010 29.83 839 24.78 -5.7 21.7 47 -15.5 4.2
02:55 1010 29.83 840 24.81 -5.7 21.8 48 -15 4.9
03:00 1010 29.83 840 24.81 -5.8 21.6 47 -15.3 4.5
03:05 1010 29.83 840 24.81 -5.7 21.7 48 -15.1 4.8
03:10 1010 29.83 840 24.81 -5.9 21.4 50 -14.8 5.4
03:15 1010 29.83 840 24.81 -6.3 20.7 52 -14.7 5.6
03:20 1010 29.83 840 24.81 -6.5 20.2 53 -14.7 5.6
03:25 1010 29.83 840 24.81 -6.6 20.1 52 -15 5
03:30 1010 29.83 839 24.78 -6.4 20.5 50 -15.2 4.7
03:35 1010 29.83 839 24.78 -6 21.1 48 -15.4 4.3
03:40 1010 29.83 839 24.78 -5.8 21.6 47 -15.5 4.1
03:45 1010 29.83 839 24.78 -5.7 21.7 46 -15.6 4
03:50 1010 29.83 839 24.78 -5.8 21.5 47 -15.4 4.3
03:55 1010 29.83 839 24.78 -6 21.2 48 -15.4 4.2
04:00 1010 29.83 839 24.78 -6.2 20.9 48 -15.6 3.9
04:05 1010 29.83 839 24.78 -6.2 20.8 47 -15.7 3.8
04:10 1010 29.83 839 24.78 -6.3 20.7 48 -15.7 3.7
04:15 1010 29.83 839 24.78 -6.4 20.5 48 -15.8 3.5
04:20 1010 29.83 839 24.78 -6.3 20.6 47 -15.8 3.5
04:25 1010 29.83 839 24.78 -6.3 20.7 47 -15.9 3.4
04:30 1010 29.83 839 24.78 -6.2 20.8 47 -15.9 3.4
04:35 1010 29.83 839 24.78 -6.1 21.1 46 -15.9 3.3
04:40 1010 29.83 839 24.78 -5.8 21.5 44 -16.1 2.9
04:45 1010 29.83 839 24.78 -5.7 21.8 44 -16.1 3
04:50 1010 29.83 839 24.78 -5.6 21.9 44 -16.1 3
04:55 1010 29.83 840 24.81 -5.7 21.8 44 -16.2 2.8
05:00 1010 29.83 839 24.78 -5.6 21.9 42 -16.5 2.3
05:05 1010 29.83 839 24.78 -5.5 22.1 42 -16.5 2.3
05:10 1010 29.83 840 24.81 -5.6 21.9 44 -16.1 3
05:15 1010 29.83 840 24.81 -5.9 21.4 45 -16.1 3.1
05:20 1010 29.83 840 24.81 -6.2 20.9 46 -16.1 3
05:25 1010 29.83 840 24.81 -6.2 20.9 45 -16.4 2.5
05:30 1010 29.83 840 24.81 -6.2 20.8 45 -16.3 2.7
05:35 1010 29.83 840 24.81 -6.2 20.8 44 -16.5 2.2
05:40 1010 29.83 840 24.81 -6.2 20.9 45 -16.4 2.5
05:45 1010 29.83 840 24.81 -6.2 20.8 45 -16.4 2.6
05:50 1011 29.85 840 24.81 -6 21.2 44 -16.4 2.4
05:55 1011 29.85 840 24.81 -6 21.3 45 -16.1 2.9
06:00 1011 29.85 840 24.81 -6 21.1 46 -16 3.3
06:05 1011 29.85 840 24.81 -6.1 21.1 46 -15.9 3.4
06:10 1011 29.85 840 24.81 -6 21.3 46 -15.8 3.6
06:15 1011 29.85 840 24.81 -6 21.3 46 -15.7 3.7
06:20 1011 29.85 840 24.81 -6 21.2 47 -15.6 3.9
06:25 1011 29.85 840 24.81 -5.9 21.4 47 -15.5 4.2
06:30 1011 29.85 840 24.81 -5.9 21.3 49 -15.1 4.9
06:35 1011 29.85 840 24.81 -5.9 21.4 48 -15.2 4.7
06:40 1011 29.85 840 24.81 -5.8 21.6 47 -15.2 4.6
06:45 1011 29.85 840 24.81 -5.5 22.1 45 -15.6 3.9
06:50 1011 29.85 840 24.81 -5.1 22.8 43 -15.7 3.7
06:55 1011 29.85 840 24.81 -4.9 23.2 44 -15.5 4.2
07:00 1011 29.85 840 24.81 -4.8 23.4 44 -15.3 4.4
07:05 1011 29.85 840 24.81 -4.8 23.3 44 -15.4 4.2
07:10 1011 29.85 840 24.81 -4.8 23.3 43 -15.6 3.9
07:15 1011 29.85 840 24.81 -4.8 23.4 44 -15.3 4.4
07:20 1011 29.85 840 24.81 -4.8 23.3 43 -15.5 4.1
07:25 1011 29.85 840 24.81 -4.8 23.4 42 -15.8 3.5
07:30 1011 29.85 840 24.81 -4.7 23.5 43 -15.5 4.1
07:35 1011 29.85 840 24.81 -4.7 23.6 44 -15.3 4.5
07:40 1011 29.85 840 24.81 -4.5 23.8 44 -15.1 4.7
07:45 1011 29.85 840 24.81 -4.5 23.8 43 -15.3 4.4
07:50 1011 29.85 840 24.81 -4.6 23.8 43 -15.2 4.6
07:55 1011 29.85 840 24.81 -4.5 24 43 -15.2 4.6
08:00 1011 29.85 840 24.81 -4.2 24.4 42 -15.3 4.5
08:05 1011 29.85 840 24.81 -4 24.9 41 -15.5 4.1
08:10 1011 29.85 840 24.81 -3.9 25.1 42 -15.1 4.8
08:15 1011 29.85 840 24.81 -3.8 25.2 42 -14.9 5.1
08:20 1011 29.85 840 24.81 -3.7 25.3 41 -15.1 4.9
08:25 1011 29.85 840 24.81 -3.7 25.3 40 -15.5 4.2
08:30 1011 29.85 840 24.81 -3.6 25.6 40 -15.3 4.5
08:35 1011 29.85 840 24.81 -3.4 25.9 39 -15.4 4.4
08:40 1011 29.85 840 24.81 -3.4 26 39 -15.5 4.1
08:45 1011 29.85 840 24.81 -3.3 26 38 -15.8 3.6
08:50 1011 29.85 840 24.81 -3.3 26.1 38 -15.8 3.6
08:55 1011 29.85 840 24.81 -3.2 26.2 39 -15.4 4.3
09:00 1011 29.85 840 24.81 -3.2 26.3 39 -15.4 4.3
09:05 1011 29.85 840 24.81 -3.2 26.3 40 -14.9 5.1
09:10 1011 29.85 840 24.81 -3.2 26.2 40 -15.1 4.7
09:15 1011 29.85 840 24.81 -3.1 26.5 40 -14.8 5.4
09:20 1011 29.85 840 24.81 -3.1 26.4 40 -14.9 5.1
09:25 1011 29.85 840 24.81 -3 26.7 40 -14.8 5.4
09:30 1011 29.85 840 24.81 -3 26.6 39 -15.1 4.9
09:35 1011 29.85 840 24.81 -3 26.5 40 -15 5.1
09:40 1011 29.85 840 24.81 -3 26.6 41 -14.5 5.9
09:45 1011 29.85 840 24.81 -3 26.7 41 -14.5 5.8
09:50 1011 29.85 840 24.81 -3 26.6 43 -14 6.8
09:55 1011 29.85 840 24.81 -3 26.6 42 -14.2 6.5
10:00 1011 29.85 840 24.81 -2.9 26.7 41 -14.4 6.1
10:05 1011 29.85 840 24.81 -2.9 26.8 41 -14.3 6.3
10:10 1011 29.85 840 24.81 -2.9 26.9 41 -14.4 6.2
10:15 1011 29.85 840 24.81 -2.7 27.1 40 -14.4 6.1
10:20 1011 29.85 840 24.81 -2.4 27.6 38 -15.1 4.9
10:25 1011 29.85 840 24.81 -2.2 28 38 -14.8 5.4
10:30 1011 29.85 840 24.81 -2.1 28.2 38 -14.6 5.8
10:35 1011 29.85 840 24.81 -2 28.4 40 -14 6.7
10:40 1011 29.85 840 24.81 -1.9 28.6 37 -14.6 5.7
10:45 1011 29.85 840 24.81 -1.8 28.7 39 -14.1 6.7
10:50 1011 29.85 840 24.81 -1.8 28.8 39 -14.1 6.6
10:55 1011 29.85 840 24.81 -1.5 29.3 36 -14.6 5.7
11:00 1011 29.85 840 24.81 -1.4 29.5 36 -14.7 5.5
11:05 1011 29.85 840 24.81 -1.3 29.6 36 -14.6 5.8
11:10 1011 29.85 840 24.81 -1.2 29.8 37 -14.3 6.3
11:15 1011 29.85 840 24.81 -1.2 29.9 36 -14.4 6.1
11:20 1011 29.85 840 24.81 -1.1 29.9 36 -14.3 6.2
11:25 1011 29.85 840 24.81 -0.9 30.3 36 -14.4 6.1
11:30 1011 29.85 840 24.81 -0.8 30.6 35 -14.3 6.2
11:35 1011 29.85 840 24.81 -0.8 30.5 34 -14.7 5.6
11:40 1011 29.85 840 24.81 -0.7 30.8 35 -14.5 5.9
11:45 1011 29.85 840 24.81 -0.7 30.7 36 -13.9 7
11:50 1011 29.85 840 24.81 -0.9 30.4 36 -14.2 6.4
11:55 1011 29.85 840 24.81 -0.6 30.9 36 -14.1 6.6
12:00 1010 29.83 840 24.81 -0.5 31.1 32 -15.5 4.2
12:05 1010 29.83 840 24.81 -0.2 31.6 33 -14.7 5.6
12:10 1010 29.83 840 24.81 -0.4 31.3 35 -14.2 6.5
12:15 1010 29.83 839 24.78 -0.5 31.1 34 -14.6 5.7
12:20 1010 29.83 839 24.78 -0.7 30.8 38 -13.3 8
12:25 1010 29.83 839 24.78 -0.7 30.7 38 -13.5 7.7
12:30 1010 29.83 839 24.78 -0.9 30.4 38 -13.4 7.9
12:35 1010 29.83 839 24.78 -0.9 30.5 37 -13.7 7.3
12:40 1010 29.83 839 24.78 -0.9 30.4 40 -12.8 8.9
12:45 1010 29.83 839 24.78 -0.9 30.4 39 -13.3 8
12:50 1010 29.83 839 24.78 -0.7 30.7 39 -13.1 8.4
12:55 1010 29.83 839 24.78 -0.6 31 37 -13.7 7.3
13:00 1010 29.83 839 24.78 -0.4 31.3 37 -13.4 7.8
13:05 1010 29.83 839 24.78 -0.4 31.3 37 -13.5 7.7
13:10 1010 29.83 839 24.78 -0.4 31.3 38 -13.1 8.4
13:15 1010 29.83 839 24.78 -0.2 31.6 37 -13.3 8
13:20 1010 29.83 839 24.78 -0.1 31.8 34 -14.3 6.3
13:25 1010 29.83 839 24.78 -0 32 35 -13.7 7.3
13:30 1010 29.83 839 24.78 0.2 32.4 34 -14 6.8
13:35 1010 29.83 839 24.78 0.5 32.9 33 -13.9 7.1
13:40 1009 29.8 839 24.78 0.6 33.1 34 -13.4 7.9
13:45 1009 29.8 839 24.78 0.2 32.4 34 -13.9 7
13:50 1009 29.8 838 24.75 0.2 32.4 35 -13.4 7.9
13:55 1009 29.8 838 24.75 0.3 32.6 34 -13.8 7.2
14:00 1009 29.8 838 24.75 0.5 32.9 34 -13.8 7.2
14:05 1009 29.8 838 24.75 0.2 32.4 36 -13.3 8
14:10 1009 29.8 838 24.75 0.3 32.5 36 -13 8.7
14:15 1009 29.8 838 24.75 0.6 33.2 36 -12.7 9.2
14:20 1009 29.8 838 24.75 0.8 33.5 33 -13.7 7.3
14:25 1009 29.8 838 24.75 0.8 33.5 33 -13.8 7.2
14:30 1009 29.8 838 24.75 0.8 33.4 35 -13 8.5
14:35 1009 29.8 838 24.75 0.8 33.4 33 -13.6 7.6
14:40 1009 29.8 838 24.75 0.7 33.2 34 -13.7 7.4
14:45 1009 29.8 838 24.75 0.5 32.9 36 -13 8.6
14:50 1009 29.8 838 24.75 0.3 32.5 36 -13.1 8.3
14:55 1009 29.8 838 24.75 -0 32 37 -13.2 8.2
15:00 1009 29.8 838 24.75 0 32 35 -13.7 7.3
15:05 1009 29.8 838 24.75 -0 31.9 36 -13.3 8
15:10 1009 29.8 838 24.75 -0.2 31.7 37 -13.3 8
15:15 1009 29.8 838 24.75 -0.2 31.6 38 -13 8.6
15:20 1009 29.8 838 24.75 -0.2 31.7 37 -13.2 8.3
15:25 1009 29.8 838 24.75 0 32 38 -12.7 9.1
15:30 1009 29.8 838 24.75 0.2 32.3 39 -12.4 9.8
15:35 1009 29.8 838 24.75 0.1 32.2 37 -13 8.5
15:40 1009 29.8 838 24.75 0.1 32.1 38 -12.5 9.5
15:45 1009 29.8 838 24.75 0 32.1 38 -12.8 9
15:50 1009 29.8 838 24.75 -0.1 31.9 38 -12.7 9.2
15:55 1009 29.8 838 24.75 0.1 32.2 36 -13.3 8
16:00 1009 29.8 838 24.75 0 32 38 -12.7 9.2
16:05 1009 29.8 838 24.75 -0.2 31.7 39 -12.7 9.2
16:10 1009 29.8 838 24.75 -0.6 30.9 39 -13 8.6
16:15 1009 29.8 838 24.75 -0.7 30.8 40 -12.8 9
16:20 1008 29.77 838 24.75 -0.8 30.6 40 -12.8 9
16:25 1008 29.77 838 24.75 -0.7 30.7 38 -13.3 8.1
16:30 1008 29.77 838 24.75 -0.9 30.5 41 -12.6 9.3
16:35 1008 29.77 837 24.72 -1.1 30 39 -13.3 8
16:40 1008 29.77 837 24.72 -1.2 29.8 40 -13.2 8.2
16:45 1008 29.77 837 24.72 -1.2 29.8 38 -13.7 7.3
16:50 1008 29.77 837 24.72 -1.1 30 39 -13.4 7.9
16:55 1008 29.77 837 24.72 -1.2 29.9 39 -13.6 7.6
17:00 1008 29.77 837 24.72 -1.2 29.9 37 -14 6.9
17:05 1008 29.77 837 24.72 -1.1 30 38 -13.6 7.6
17:10 1008 29.77 837 24.72 -1.1 30 37 -14 6.8
17:15 1008 29.77 837 24.72 -1.1 30 37 -13.9 6.9
17:20 1008 29.77 837 24.72 -1.3 29.7 37 -14.1 6.6
17:25 1008 29.77 837 24.72 -1.4 29.5 38 -14.1 6.5
17:30 1008 29.77 837 24.72 -1.5 29.3 38 -14 6.8
17:35 1008 29.77 837 24.72 -1.6 29.2 41 -13.3 8.1
17:40 1008 29.77 837 24.72 -1.7 28.9 41 -13.4 7.9
17:45 1008 29.77 837 24.72 -1.8 28.7 40 -13.8 7.1
17:50 1008 29.77 837 24.72 -1.7 28.9 37 -14.6 5.8
17:55 1008 29.77 837 24.72 -1.5 29.3 38 -14 6.7
18:00 1008 29.77 837 24.72 -1.6 29.2 37 -14.4 6.1
18:05 1008 29.77 837 24.72 -1.5 29.3 37 -14.5 5.8
18:10 1008 29.77 837 24.72 -1.3 29.6 35 -15 5
18:15 1008 29.77 837 24.72 -1 30.2 34 -15 5
18:20 1008 29.77 837 24.72 -1 30.1 33 -15.3 4.5
18:25 1008 29.77 837 24.72 -0.8 30.6 34 -14.6 5.6
18:30 1008 29.77 837 24.72 -0.9 30.4 36 -14.4 6.2
18:35 1008 29.77 837 24.72 -1.1 30.1 34 -15 5.1
18:40 1008 29.77 837 24.72 -1 30.1 36 -14.3 6.3
18:45 1008 29.77 837 24.72 -1.3 29.7 36 -14.4 6
18:50 1008 29.77 837 24.72 -1.4 29.5 37 -14.4 6.1
18:55 1008 29.77 837 24.72 -1.4 29.5 35 -14.9 5.1
19:00 1008 29.77 837 24.72 -1.3 29.7 36 -14.5 5.9
19:05 1008 29.77 837 24.72 -1.3 29.7 36 -14.6 5.8
19:10 1008 29.77 837 24.72 -1.1 30 34 -15 5
19:15 1008 29.77 837 24.72 -1 30.2 34 -14.9 5.1
19:20 1008 29.77 837 24.72 -0.9 30.3 36 -14.3 6.3
19:25 1008 29.77 837 24.72 -1 30.2 35 -14.7 5.5
19:30 1008 29.77 837 24.72 -1 30.1 34 -15.1 4.9
19:35 1008 29.77 837 24.72 -1.1 30 35 -14.6 5.7
19:40 1008 29.77 837 24.72 -1.3 29.7 37 -14.3 6.3
19:45 1008 29.77 837 24.72 -1.2 29.9 36 -14.4 6.2
19:50 1008 29.77 837 24.72 -1.2 29.8 37 -14.1 6.6
19:55 1008 29.77 837 24.72 -1.3 29.6 36 -14.6 5.8
20:00 1008 29.77 837 24.72 -1.1 30.1 35 -14.7 5.5
20:05 1008 29.77 837 24.72 -1 30.2 36 -14.5 6
20:10 1008 29.77 837 24.72 -1 30.2 36 -14.3 6.3
20:15 1008 29.77 837 24.72 -1 30.2 37 -13.9 7
20:20 1008 29.77 837 24.72 -1 30.1 36 -14.5 6
20:25 1007 29.74 837 24.72 -0.9 30.4 34 -14.9 5.2
20:30 1008 29.77 837 24.72 -0.6 30.9 36 -13.9 6.9
20:35 1008 29.77 837 24.72 -0.7 30.7 35 -14.3 6.2
20:40 1008 29.77 837 24.72 -0.7 30.7 34 -14.8 5.4
20:45 1007 29.74 837 24.72 -0.3 31.4 33 -14.9 5.2
20:50 1007 29.74 837 24.72 -0.2 31.7 34 -14.1 6.6
20:55 1007 29.74 837 24.72 -0.5 31.2 36 -13.7 7.4
21:00 1007 29.74 837 24.72 -0.7 30.7 39 -13 8.7
21:05 1007 29.74 837 24.72 -1 30.2 39 -13.2 8.2
21:10 1007 29.74 836 24.69 -0.9 30.3 40 -13 8.6
21:15 1007 29.74 836 24.69 -0.8 30.5 38 -13.5 7.6
21:20 1007 29.74 836 24.69 -0.4 31.3 38 -12.9 8.7
21:25 1007 29.74 836 24.69 -0.4 31.2 40 -12.6 9.3
21:30 1007 29.74 836 24.69 -0.6 30.9 40 -12.5 9.5
21:35 1007 29.74 836 24.69 -0.6 31 40 -12.7 9.1
21:40 1007 29.74 836 24.69 -0.6 30.9 39 -12.8 9
21:45 1007 29.74 836 24.69 -0.7 30.8 40 -12.6 9.4
21:50 1007 29.74 836 24.69 -0.7 30.7 41 -12.5 9.6
21:55 1007 29.74 836 24.69 -0.8 30.5 42 -12.2 10
22:00 1007 29.74 836 24.69 -0.8 30.6 41 -12.5 9.6
22:05 1007 29.74 836 24.69 -0.6 30.9 41 -12.4 9.7
22:10 1007 29.74 836 24.69 -0.7 30.7 42 -12 10.4
22:15 1007 29.74 836 24.69 -0.9 30.4 42 -12.1 10.2
22:20 1007 29.74 836 24.69 -0.8 30.5 43 -11.9 10.6
22:25 1007 29.74 836 24.69 -0.9 30.5 42 -12.1 10.2
22:30 1007 29.74 836 24.69 -0.8 30.6 41 -12.3 9.8
22:35 1007 29.74 836 24.69 -0.5 31 40 -12.7 9.2
22:40 1006 29.71 836 24.69 -0.6 31 39 -12.9 8.9
22:45 1006 29.71 836 24.69 -0.6 30.9 39 -13 8.7
22:50 1006 29.71 835 24.66 -0.8 30.6 40 -12.9 8.8
22:55 1006 29.71 835 24.66 -0.8 30.6 41 -12.5 9.4
23:00 1006 29.71 835 24.66 -0.9 30.3 40 -13 8.7
23:05 1006 29.71 835 24.66 -0.9 30.4 41 -12.6 9.3
23:10 1006 29.71 835 24.66 -1 30.2 41 -12.6 9.4
23:15 1006 29.71 835 24.66 -0.9 30.3 42 -12.3 9.8
23:20 1006 29.71 835 24.66 -1.1 29.9 43 -12.1 10.3
23:25 1006 29.71 835 24.66 -1.2 29.8 44 -12 10.5
23:30 1006 29.71 835 24.66 -1.2 29.8 43 -12.3 9.8
23:35 1006 29.71 835 24.66 -1.2 29.8 43 -12.3 9.9
23:40 1006 29.71 835 24.66 -1.2 29.8 44 -12.1 10.3
23:45 1006 29.71 835 24.66 -1.2 29.9 43 -12.3 9.8
23:50 1006 29.71 835 24.66 -1.2 29.9 43 -12.1 10.3
23:55 1006 29.71 835 24.66 -1.2 29.9 43 -12.1 10.1
24:00 1006 29.71 835 24.66 -1 30.1 40 -13 8.6